Overview Statistics Trail Chart Weather Telemetry Raw packets
 

This is the latest recevied weather packets stored in our database for station/object N2ZVN. If no packets are shown the sender has not sent any weather packets the latest 10 day(s).

<< 9 10 11 12 13 14 15 >>
Time Temp. Humidity Pressure Rain* Wind** Luminosity Snow
1788643458 22.22° C 66% 1015.4 hPa 0 mm - 21 W/m² -
1788643157 22.22° C 66% 1015.5 hPa 0 mm - 21 W/m² -
1788642853 22.78° C 65% 1015.2 hPa 0 mm - 24 W/m² -
1788642549 22.22° C 67% 1015.1 hPa 0 mm - 22 W/m² -
1788642248 22.22° C 66% 1015.2 hPa 0 mm - 23 W/m² -
1788641948 22.22° C 66% 1015.2 hPa 0 mm - 25 W/m² -
1788641643 22.22° C 65% 1015.2 hPa 0 mm - 22 W/m² -
1788641341 22.22° C 66% 1015.2 hPa 0 mm - 22 W/m² -
1788641038 22.22° C 65% 1014.9 hPa 0 mm - 39 W/m² -
1788640736 22.22° C 65% 1015.4 hPa 0 mm - 22 W/m² -
1788640433 22.22° C 65% 1015 hPa 0 mm - 24 W/m² -
1788640129 22.22° C 65% 1015.2 hPa 0 mm - 23 W/m² -
1788639829 22.22° C 67% 1015.2 hPa 0 mm - 23 W/m² -
1788639525 22.22° C 65% 1015.2 hPa 0 mm - 23 W/m² -
1788639220 22.22° C 64% 1015.3 hPa 0 mm - 25 W/m² -
1788638941 22.22° C 64% 1015.4 hPa 0 mm - 43 W/m² -
1788638616 22.22° C 64% 1015.4 hPa 0 mm - 24 W/m² -
1788638313 22.22° C 64% 1015.3 hPa 0 mm - 30 W/m² -
1788638009 22.22° C 65% 1015.2 hPa 0 mm - 50 W/m² -
1788637705 22.22° C 66% 1015.3 hPa 0 mm - 62 W/m² -
1788637404 22.22° C 62% 1015.4 hPa 0 mm - 35 W/m² -
1788637103 22.22° C 61% 1015.6 hPa 0 mm - 25 W/m² -
1788636799 22.22° C 62% 1015.3 hPa 0 mm - 138 W/m² -
1788636494 22.22° C 65% 1015.4 hPa 0 mm - 38 W/m² -
1788636190 22.22° C 64% 1015.6 hPa 0 mm - 28 W/m² -

* Rain latest hour (hover to see other rain measurements)
** Current wind speed in m/s (hover to see current wind gust speed)